Dauntless Aviation
Airports Europe Switzerland
LSTA

Raron Airport

Raron, SWITZERLAND

Airport Info
Suggest Updated Information for this Airport

Location

Latitude / Longitude: 46°18'12"N / 7°49'23"E
  46°18.216'N / 7°49.398'E
  46.3036 / 7.8233
Satellite photo at:
Airport distance calculator
From:
Weather Reports

METAR

LSGS
21.7nm SW
LSGS 221620Z 25011KT CAVOK 18/M03 Q1026
LSMS
21.7nm SW
LSMS 221620Z 25011KT CAVOK 18/M03 Q1026 RMK BLU+
LIMH
22.8nm S
LIMH 221555Z /////KT CAVOK M03/M28 Q1031 RMK SKC MON LIB VAL NIL VIS MIN 9999
LSMM
29.4nm N
LSMM 221620Z AUTO VRB01KT 9999NDV NCD 16/M02 Q1028 RMK
LSZB
39.2nm NW
LSZB 221620Z VRB02KT CAVOK 19/M03 Q1027 NOSIG
LIMW
39.2nm S
LIMW 221620Z AUTO 10014KT 9999 NCD 19/M06 Q1026

TAF

LSGS
21.7nm SW
TAF LSGS 221425Z 2215/2224 VRB03KT CAVOK
LSZB
39.2nm NW
TAF LSZB 221425Z 2215/2224 VRB03KT CAVOK
LIMW
39.2nm S
TAF LIMW 221400Z 2215/2224 10015KT CAVOK
Safelog

 

Dauntless Aviation

© 2007-2019 Dauntless Aviation, all rights reserved
Information provided via PilotNav comes from a variety of official and unofficial data sources. As errors are possible, do not use PilotNav for primary flight planning purposes. Verify any information that you receive via PilotNav with current and canonical charts and other official documents. The material in this database is subject to database copyrights held by Dauntless Aviation and may not be copied without the express permission of Dauntless Aviation - licenses for use of part of all of this data are available for purchase; enquire via the Dauntless Aviation helpdesk. A number of mechanisms and markers exist in the database to protect against and identify infringement / copyright. Automated queries against this website are stictly prohibited, and all activity is logged and analyzed.